Weather History for Hibbing, MN

Change the Weather History Date:

Tuesday, April 29, 2014

  Actual Average Record
Temperature  
Mean Temperature 42 °F -  
Max Temperature 50 °F 57 °F 82 °F (1965)
Min Temperature 35 °F 32 °F 19 °F (2008)
Degree Days  
Heating Degree Days 24    
Moisture  
Dew Point 28 °F    
Average Humidity 66    
Maximum Humidity 89    
Minimum Humidity 28    
Precipitation  
Precipitation 0.14 in - - ()
Sea Level Pressure  
Sea Level Pressure 29.91 in    
Wind  
Wind Speed 16 mph (NNE)    
Max Wind Speed 23 mph    
Max Gust Speed 31 mph    
Visibility 9 miles    
Events Rain , Snow    
Averages and records for this station are not official NWS values.
T = Trace of Precipitation, MM = Missing Value Source: NWS Daily Summary

Daily Weather History Graph

Daily Weather History Graph

Search for Another Location

Airport:

Trip Planner

Search our weather history database for the weather conditions in past years. The results will help you decide how hot, cold, wet, or windy it might be!

Date:

Astronomy

Apr. 29, 2014 Rise Set
Actual Time 5:58 AM CDT 8:20 PM CDT
Civil Twilight 5:24 AM CDT 8:54 PM CDT
Nautical Twilight 4:41 AM CDT 9:36 PM CDT
Astronomical Twilight 3:53 AM CDT 10:25 PM CDT
Moon 6:17 AM CDT (4/29) 9:02 PM CDT (4/29)
Length of Visible Light 15h 30m
Length of Day
14h 22m
New Moon, 0% of the Moon is Illuminated
Apr 29
New Moon
May 6
First Quarter
May 14
Full
May 21
Last Quarter
May 28
New

Hourly Weather History & Observations

Time (CDT) Temp. Windchill Dew Point Humidity Pressure Visibility Wind Dir Wind Speed Gust Speed Precip Events Conditions
12:53 AM 46.0 °F 37.8 °F 14.0 °F 28% 29.94 in 10.0 mi East 23.0 mph 31.1 mph N/A   Clear
1:53 AM 45.0 °F 38.2 °F 15.1 °F 30% 29.94 in 10.0 mi East 15.0 mph 23.0 mph N/A   Clear
2:53 AM 44.1 °F 37.1 °F 17.1 °F 34% 29.94 in 10.0 mi East 15.0 mph 27.6 mph N/A   Clear
3:53 AM 42.1 °F 34.9 °F 18.0 °F 38% 29.94 in 10.0 mi ENE 13.8 mph 27.6 mph N/A   Clear
4:53 AM 39.9 °F 32.9 °F 18.0 °F 41% 29.93 in 10.0 mi NE 11.5 mph 21.9 mph N/A   Clear
5:53 AM 37.9 °F 30.0 °F 19.0 °F 47% 29.93 in 10.0 mi NE 12.7 mph 21.9 mph N/A   Clear
6:53 AM 37.0 °F 28.9 °F 19.0 °F 48% 29.94 in 10.0 mi NE 12.7 mph 20.7 mph N/A   Clear
8:53 AM 37.9 °F 28.9 °F 21.0 °F 51% 29.94 in 10.0 mi NE 16.1 mph 26.5 mph N/A   Partly Cloudy
9:53 AM 39.0 °F 31.8 °F 21.9 °F 50% 29.94 in 10.0 mi NE 11.5 mph 27.6 mph N/A   Overcast
10:53 AM 43.0 °F 34.8 °F 23.0 °F 45% 29.94 in 10.0 mi NE 18.4 mph 28.8 mph N/A   Scattered Clouds
11:53 AM 44.1 °F 35.7 °F 24.1 °F 45% 29.91 in 10.0 mi NNE 20.7 mph 27.6 mph N/A   Clear
12:53 PM 46.0 °F 38.5 °F 25.0 °F 44% 29.88 in 10.0 mi NNE 19.6 mph 31.1 mph N/A   Partly Cloudy
1:53 PM 48.0 °F - 26.1 °F 42% 29.86 in 10.0 mi NE 16.1 mph 26.5 mph N/A   Mostly Cloudy
2:53 PM 46.9 °F - 28.0 °F 48% 29.87 in 10.0 mi ENE 20.7 mph 29.9 mph 0.00 in   Overcast
4:53 PM 42.1 °F 34.5 °F 34.0 °F 73% 29.90 in 9.0 mi NE 15.0 mph 23.0 mph 0.01 in Rain Light Rain
5:53 PM 41.0 °F 33.5 °F 35.1 °F 79% 29.92 in 9.0 mi NE 13.8 mph 24.2 mph 0.02 in Rain Light Rain
6:51 PM 39.2 °F 30.2 °F 35.6 °F 87% 29.89 in 10.0 mi NNE 17.3 mph 23.0 mph 0.02 in Rain Light Rain
6:53 PM 39.0 °F 31.0 °F 35.1 °F 86% 29.93 in 10.0 mi NNE 13.8 mph 21.9 mph 0.02 in Rain Light Rain
7:18 PM 39.0 °F 31.0 °F 34.0 °F 82% 29.89 in 7.0 mi NNE 13.8 mph 23.0 mph 0.01 in Rain Light Rain
7:27 PM 39.0 °F 30.6 °F 34.0 °F 82% 29.89 in 6.0 mi NNE 15.0 mph 23.0 mph 0.02 in Rain Light Rain
7:53 PM 37.9 °F 30.5 °F 34.0 °F 86% 29.93 in 6.0 mi NNE 11.5 mph 20.7 mph 0.03 in Rain Light Rain
8:19 PM 37.0 °F 28.9 °F 33.1 °F 86% 29.89 in 8.0 mi NNE 12.7 mph - 0.02 in Rain Light Rain
8:53 PM 37.0 °F 29.3 °F 33.1 °F 86% 29.93 in 9.0 mi North 11.5 mph - 0.03 in Rain Light Rain
9:08 PM 36.0 °F 27.5 °F 33.1 °F 89% 29.88 in 8.0 mi North 12.7 mph - 0.01 in Rain Light Rain
9:35 PM 36.0 °F 27.5 °F 32.0 °F 86% 29.88 in 10.0 mi North 12.7 mph - 0.01 in Rain Light Rain
9:53 PM 35.1 °F 26.9 °F 32.0 °F 89% 29.92 in 7.0 mi North 11.5 mph - 0.02 in Snow Light Snow
10:27 PM 35.1 °F 26.9 °F 32.0 °F 89% 29.86 in 8.0 mi North 11.5 mph - 0.01 in Snow Light Snow
10:53 PM 36.0 °F 28.0 °F 32.0 °F 86% 29.89 in 10.0 mi North 11.5 mph - 0.01 in Rain Light Rain
11:08 PM 36.0 °F 28.0 °F 32.0 °F 86% 29.85 in 10.0 mi North 11.5 mph - 0.00 in   Overcast
11:20 PM 36.0 °F 26.7 °F 32.0 °F 86% 29.85 in 10.0 mi North 15.0 mph 23.0 mph 0.00 in   Overcast
11:53 PM 36.0 °F 27.1 °F 32.0 °F 86% 29.88 in 9.0 mi North 13.8 mph - 0.00 in   Overcast